Time,TemperatureF,DewpointF,PressureIn,WindDirection,WindDirectionDegrees,WindSpeedMPH,WindSpeedGustMPH,Humidity,HourlyPrecipIn,Conditions,Clouds,dailyrainin,SolarRadiationWatts/m^2,SoftwareType,DateUTC
2013-08-24 00:01:00,72.1,67.7,30.07,South,174,3.1,4.0,86,0.00,CLR,,0.00,0.0,WeatherDisplay:10.37,2013-08-24 05:01:00,
2013-08-24 00:06:00,72.0,67.6,30.07,South,185,3.0,4.0,86,0.00,CLR,,0.00,0.0,WeatherDisplay:10.37,2013-08-24 05:06:00,
2013-08-24 00:11:00,71.9,67.8,30.07,SSW,197,2.0,5.8,87,0.00,CLR,,0.00,0.0,WeatherDisplay:10.37,2013-08-24 05:11:00,
2013-08-24 00:16:00,71.9,67.8,30.07,South,176,1.1,6.9,87,0.00,CLR,,0.00,0.0,WeatherDisplay:10.37,2013-08-24 05:16:00,
2013-08-24 00:21:00,72.0,67.9,30.07,SSE,156,1.3,4.0,87,0.00,CLR,,0.00,0.0,WeatherDisplay:10.37,2013-08-24 05:21:00,
2013-08-24 00:26:00,72.1,68.0,30.07,ESE,115,3.2,6.0,87,0.00,CLR,,0.00,0.0,WeatherDisplay:10.37,2013-08-24 05:26:00,
2013-08-24 00:31:00,72.2,68.1,30.07,SSE,168,2.6,6.0,87,0.00,CLR,,0.00,0.0,WeatherDisplay:10.37,2013-08-24 05:31:00,
2013-08-24 00:36:00,72.3,68.2,30.07,South,182,2.7,7.0,87,0.00,CLR,,0.00,0.0,WeatherDisplay:10.37,2013-08-24 05:36:00,
2013-08-24 00:41:00,72.3,67.9,30.06,SSE,163,1.2,3.0,86,0.00,CLR,,0.00,0.0,WeatherDisplay:10.37,2013-08-24 05:41:00,
2013-08-24 00:46:00,72.3,68.2,30.07,South,178,3.7,5.0,87,0.00,CLR,,0.00,0.0,WeatherDisplay:10.37,2013-08-24 05:46:00,
2013-08-24 00:51:00,72.3,68.2,30.07,SSE,147,3.0,8.1,87,0.00,CLR,,0.00,0.0,WeatherDisplay:10.37,2013-08-24 05:51:00,
2013-08-24 00:56:00,72.2,68.1,30.07,South,169,1.5,3.5,87,0.00,CLR,,0.00,0.0,WeatherDisplay:10.37,2013-08-24 05:56:00,
2013-08-24 01:01:00,72.1,68.0,30.07,ESE,117,2.8,4.0,87,0.00,CLR,,0.00,0.0,WeatherDisplay:10.37,2013-08-24 06:01:00,
2013-08-24 01:06:00,72.1,68.0,30.07,South,180,3.8,6.0,87,0.00,FEW,,0.00,0.0,WeatherDisplay:10.37,2013-08-24 06:06:00,
2013-08-24 01:11:00,72.1,68.0,30.07,South,190,2.4,6.9,87,0.00,FEW,,0.00,0.0,WeatherDisplay:10.37,2013-08-24 06:11:00,
2013-08-24 01:16:00,72.1,68.0,30.06,SE,138,4.7,9.2,87,0.00,FEW,,0.00,0.0,WeatherDisplay:10.37,2013-08-24 06:16:00,
2013-08-24 01:21:00,72.0,68.2,30.07,South,177,4.3,6.9,88,0.00,FEW,,0.00,0.0,WeatherDisplay:10.37,2013-08-24 06:21:00,
2013-08-24 01:26:00,71.9,68.2,30.07,SE,146,2.5,5.0,88,0.00,FEW,,0.00,0.0,WeatherDisplay:10.37,2013-08-24 06:26:00,
2013-08-24 01:31:00,71.9,68.2,30.07,South,187,2.4,4.0,88,0.00,FEW,,0.00,0.0,WeatherDisplay:10.37,2013-08-24 06:31:00,
2013-08-24 01:36:00,71.9,68.2,30.07,SSE,160,3.8,8.1,88,0.00,FEW,,0.00,0.0,WeatherDisplay:10.37,2013-08-24 06:36:00,
2013-08-24 01:41:00,71.9,68.2,30.07,South,182,4.0,8.0,88,0.00,FEW,,0.00,0.0,WeatherDisplay:10.37,2013-08-24 06:41:00,
2013-08-24 01:46:00,71.8,68.1,30.07,ESE,111,3.1,6.9,88,0.00,FEW,,0.00,0.0,WeatherDisplay:10.37,2013-08-24 06:46:00,
2013-08-24 01:51:00,71.8,68.1,30.07,SSE,163,3.1,6.0,88,0.00,FEW,,0.00,0.0,WeatherDisplay:10.37,2013-08-24 06:51:00,
2013-08-24 01:56:00,71.7,68.0,30.07,SE,146,2.3,6.0,88,0.00,FEW,,0.00,0.0,WeatherDisplay:10.37,2013-08-24 06:56:00,
2013-08-24 02:01:00,71.7,68.0,30.07,South,170,2.6,4.0,88,0.00,FEW,,0.00,0.0,WeatherDisplay:10.37,2013-08-24 07:01:00,
2013-08-24 02:06:00,71.6,68.2,30.07,SSW,197,1.7,4.0,89,0.00,CLR,,0.00,0.0,WeatherDisplay:10.37,2013-08-24 07:06:00,
2013-08-24 02:11:00,71.6,68.2,30.07,SSE,153,3.5,9.2,89,0.00,CLR,,0.00,0.0,WeatherDisplay:10.37,2013-08-24 07:11:00,
2013-08-24 02:16:00,71.6,68.2,30.07,SE,144,2.2,6.0,89,0.00,CLR,,0.00,0.0,WeatherDisplay:10.37,2013-08-24 07:16:00,
2013-08-24 02:21:00,71.5,68.1,30.07,SSW,201,2.6,8.0,89,0.00,CLR,,0.00,0.0,WeatherDisplay:10.37,2013-08-24 07:21:00,
2013-08-24 02:26:00,71.5,68.1,30.07,South,180,1.9,4.0,89,0.00,CLR,,0.00,0.0,WeatherDisplay:10.37,2013-08-24 07:26:00,
2013-08-24 02:31:00,71.4,68.0,30.07,SSE,163,2.6,6.0,89,0.00,CLR,,0.00,0.0,WeatherDisplay:10.37,2013-08-24 07:31:00,
2013-08-24 02:36:00,71.4,68.0,30.07,SSE,148,1.1,7.0,89,0.00,CLR,,0.00,0.0,WeatherDisplay:10.37,2013-08-24 07:36:00,
2013-08-24 02:41:00,71.4,68.0,30.07,SSE,162,1.9,5.0,89,0.00,CLR,,0.00,0.0,WeatherDisplay:10.37,2013-08-24 07:41:00,
2013-08-24 02:46:00,71.4,68.3,30.07,South,188,2.6,4.0,90,0.00,CLR,,0.00,0.0,WeatherDisplay:10.37,2013-08-24 07:46:00,
2013-08-24 02:51:00,71.3,68.2,30.07,SSW,198,1.9,5.0,90,0.00,CLR,,0.00,0.0,WeatherDisplay:10.37,2013-08-24 07:51:00,
2013-08-24 02:56:00,71.3,68.2,30.07,South,182,5.5,8.0,90,0.00,CLR,,0.00,0.0,WeatherDisplay:10.37,2013-08-24 07:56:00,
2013-08-24 03:01:00,71.2,68.1,30.07,South,180,2.7,6.0,90,0.00,FEW,,0.00,0.0,WeatherDisplay:10.37,2013-08-24 08:01:00,
2013-08-24 03:06:00,71.1,68.0,30.07,SSW,205,2.1,5.0,90,0.00,FEW,,0.00,0.0,WeatherDisplay:10.37,2013-08-24 08:06:00,
2013-08-24 03:11:00,71.0,67.9,30.07,South,176,4.0,6.0,90,0.00,FEW,,0.00,0.0,WeatherDisplay:10.37,2013-08-24 08:11:00,
2013-08-24 03:16:00,70.9,67.8,30.07,South,181,2.3,5.0,90,0.00,FEW,,0.00,0.0,WeatherDisplay:10.37,2013-08-24 08:16:00,
2013-08-24 03:21:00,70.9,67.8,30.07,SSE,162,4.1,6.0,90,0.00,FEW,,0.00,0.0,WeatherDisplay:10.37,2013-08-24 08:21:00,
2013-08-24 03:26:00,70.8,68.0,30.07,SSE,167,2.6,5.0,91,0.00,FEW,,0.00,0.0,WeatherDisplay:10.37,2013-08-24 08:26:00,
2013-08-24 03:31:00,70.8,68.0,30.07,SSE,162,2.9,6.0,91,0.00,FEW,,0.00,0.0,WeatherDisplay:10.37,2013-08-24 08:31:00,
2013-08-24 03:36:00,70.7,67.9,30.07,SSE,157,4.2,8.0,91,0.00,FEW,,0.00,0.0,WeatherDisplay:10.37,2013-08-24 08:36:00,
2013-08-24 03:41:00,70.7,67.9,30.07,SSW,192,3.2,5.0,91,0.00,FEW,,0.00,0.0,WeatherDisplay:10.37,2013-08-24 08:41:00,
2013-08-24 03:46:00,70.6,67.8,30.07,SSE,152,3.7,6.0,91,0.00,FEW,,0.00,0.0,WeatherDisplay:10.37,2013-08-24 08:46:00,
2013-08-24 03:51:00,70.6,67.8,30.07,South,174,1.8,4.6,91,0.00,FEW,,0.00,0.0,WeatherDisplay:10.37,2013-08-24 08:51:00,
2013-08-24 03:56:00,70.6,67.8,30.07,SE,138,2.8,6.0,91,0.00,FEW,,0.00,0.0,WeatherDisplay:10.37,2013-08-24 08:56:00,
2013-08-24 04:01:00,70.5,67.7,30.07,South,173,3.3,8.1,91,0.00,CLR,,0.00,0.0,WeatherDisplay:10.37,2013-08-24 09:01:00,
2013-08-24 04:06:00,70.6,68.2,30.07,SSW,193,2.7,5.0,92,0.00,CLR,,0.00,0.0,WeatherDisplay:10.37,2013-08-24 09:06:00,
2013-08-24 04:11:00,70.5,67.7,30.07,South,175,2.6,4.0,91,0.00,CLR,,0.00,0.0,WeatherDisplay:10.37,2013-08-24 09:11:00,
2013-08-24 04:16:00,70.5,67.7,30.07,SSE,157,3.3,5.0,91,0.00,CLR,,0.00,0.0,WeatherDisplay:10.37,2013-08-24 09:16:00,
2013-08-24 04:21:00,70.6,67.8,30.07,NE,53,4.5,10.4,91,0.00,CLR,,0.00,0.0,WeatherDisplay:10.37,2013-08-24 09:21:00,
2013-08-24 04:26:00,70.7,67.9,30.07,SSE,159,3.0,7.0,91,0.00,CLR,,0.00,0.0,WeatherDisplay:10.37,2013-08-24 09:26:00,
2013-08-24 04:31:00,70.7,67.9,30.07,South,190,3.6,6.9,91,0.00,CLR,,0.00,0.0,WeatherDisplay:10.37,2013-08-24 09:31:00,
2013-08-24 04:36:00,70.6,67.8,30.07,SSE,167,2.7,8.0,91,0.00,CLR,,0.00,0.0,WeatherDisplay:10.37,2013-08-24 09:36:00,
2013-08-24 04:41:00,70.5,67.7,30.07,SSW,195,2.8,6.0,91,0.00,CLR,,0.00,0.0,WeatherDisplay:10.37,2013-08-24 09:41:00,
2013-08-24 04:46:00,70.5,67.7,30.07,South,180,4.3,8.1,91,0.00,CLR,,0.00,0.0,WeatherDisplay:10.37,2013-08-24 09:46:00,
2013-08-24 04:51:00,70.5,67.7,30.07,South,171,2.3,5.8,91,0.00,CLR,,0.00,0.0,WeatherDisplay:10.37,2013-08-24 09:51:00,
2013-08-24 04:56:00,70.4,67.6,30.07,South,186,3.2,6.0,91,0.00,CLR,,0.00,0.0,WeatherDisplay:10.37,2013-08-24 09:56:00,
2013-08-24 05:01:00,70.4,67.6,30.07,SSE,150,4.9,11.5,91,0.00,CLR,,0.00,0.0,WeatherDisplay:10.37,2013-08-24 10:01:00,
2013-08-24 05:06:00,70.5,67.7,30.07,SE,144,2.6,6.0,91,0.00,BKN,,0.00,0.0,WeatherDisplay:10.37,2013-08-24 10:06:00,
2013-08-24 05:11:00,70.5,67.7,30.07,ESE,120,4.0,5.8,91,0.00,BKN,,0.00,0.0,WeatherDisplay:10.37,2013-08-24 10:11:00,
2013-08-24 05:16:00,70.5,67.7,30.06,South,183,3.9,7.0,91,0.00,BKN,,0.00,0.0,WeatherDisplay:10.37,2013-08-24 10:16:00,
2013-08-24 05:21:00,70.4,67.6,30.06,SSE,165,2.0,8.1,91,0.00,BKN,,0.00,0.0,WeatherDisplay:10.37,2013-08-24 10:21:00,
2013-08-24 05:26:00,70.3,67.5,30.06,South,175,3.0,8.1,91,0.00,BKN,,0.00,0.0,WeatherDisplay:10.37,2013-08-24 10:26:00,
2013-08-24 05:31:00,70.3,67.5,30.06,South,189,5.2,9.2,91,0.00,BKN,,0.00,0.0,WeatherDisplay:10.37,2013-08-24 10:31:00,
2013-08-24 05:36:00,70.3,67.5,30.06,South,178,4.1,6.0,91,0.00,BKN,,0.00,0.0,WeatherDisplay:10.37,2013-08-24 10:36:00,
2013-08-24 05:41:00,70.2,67.4,30.06,South,183,3.1,6.0,91,0.00,BKN,,0.00,0.0,WeatherDisplay:10.37,2013-08-24 10:41:00,
2013-08-24 05:46:00,70.2,67.4,30.06,South,181,3.4,5.0,91,0.00,BKN,,0.00,0.0,WeatherDisplay:10.37,2013-08-24 10:46:00,
2013-08-24 05:51:00,70.2,67.4,30.06,South,187,4.8,11.5,91,0.00,BKN,,0.00,0.0,WeatherDisplay:10.37,2013-08-24 10:51:00,
2013-08-24 05:56:00,70.3,67.5,30.06,SE,137,2.6,8.1,91,0.00,BKN,,0.00,0.0,WeatherDisplay:10.37,2013-08-24 10:56:00,
2013-08-24 06:01:00,70.3,67.5,30.06,SE,143,3.7,9.2,91,0.00,BKN,,0.00,0.0,WeatherDisplay:10.37,2013-08-24 11:01:00,
2013-08-24 06:06:00,70.3,67.5,30.07,SSW,192,2.9,5.0,91,0.00,FEW,,0.00,0.0,WeatherDisplay:10.37,2013-08-24 11:06:00,
2013-08-24 06:11:00,70.3,67.5,30.07,SSE,148,1.8,5.8,91,0.00,FEW,,0.00,0.0,WeatherDisplay:10.37,2013-08-24 11:11:00,
2013-08-24 06:16:00,70.3,67.5,30.07,SSE,167,4.3,7.0,91,0.00,FEW,,0.00,0.0,WeatherDisplay:10.37,2013-08-24 11:16:00,
2013-08-24 06:21:00,70.3,67.5,30.07,South,178,5.6,9.2,91,0.00,FEW,,0.00,0.0,WeatherDisplay:10.37,2013-08-24 11:21:00,
2013-08-24 06:26:00,70.3,67.5,30.07,SSE,163,4.3,8.0,91,0.00,FEW,,0.00,0.0,WeatherDisplay:10.37,2013-08-24 11:26:00,
2013-08-24 06:31:00,70.2,67.4,30.07,SSW,202,4.8,8.1,91,0.00,FEW,,0.00,5.0,WeatherDisplay:10.37,2013-08-24 11:31:00,
2013-08-24 06:36:00,70.2,67.4,30.07,ESE,118,5.1,10.4,91,0.00,FEW,,0.00,7.0,WeatherDisplay:10.37,2013-08-24 11:36:00,
2013-08-24 06:41:00,70.2,67.4,30.07,South,186,2.7,6.9,91,0.00,FEW,,0.00,11.0,WeatherDisplay:10.37,2013-08-24 11:41:00,
2013-08-24 06:46:00,70.2,67.4,30.07,South,182,2.9,8.0,91,0.00,FEW,,0.00,16.0,WeatherDisplay:10.37,2013-08-24 11:46:00,
2013-08-24 06:51:00,70.2,67.4,30.07,SSW,193,1.9,4.0,91,0.00,FEW,,0.00,21.0,WeatherDisplay:10.37,2013-08-24 11:51:00,
2013-08-24 06:56:00,70.2,67.4,30.07,South,171,2.1,5.0,91,0.00,FEW,,0.00,32.0,WeatherDisplay:10.37,2013-08-24 11:56:00,
2013-08-24 07:01:00,70.3,67.5,30.06,SE,136,4.2,9.2,91,0.00,FEW,,0.00,35.0,WeatherDisplay:10.37,2013-08-24 12:01:00,
2013-08-24 07:06:00,70.3,67.5,30.06,SSE,159,4.4,6.0,91,0.00,CLR,,0.00,39.0,WeatherDisplay:10.37,2013-08-24 12:06:00,
2013-08-24 07:11:00,70.4,67.6,30.06,SSE,167,3.3,5.0,91,0.00,CLR,,0.00,42.0,WeatherDisplay:10.37,2013-08-24 12:11:00,
2013-08-24 07:16:00,70.5,67.7,30.06,SSE,153,4.4,7.0,91,0.00,CLR,,0.00,44.0,WeatherDisplay:10.37,2013-08-24 12:16:00,
2013-08-24 07:21:00,70.6,67.8,30.06,SSW,198,2.5,4.6,91,0.00,CLR,,0.00,46.0,WeatherDisplay:10.37,2013-08-24 12:21:00,
2013-08-24 07:26:00,70.6,67.8,30.06,SSW,205,3.1,7.0,91,0.00,CLR,,0.00,47.0,WeatherDisplay:10.37,2013-08-24 12:26:00,
2013-08-24 07:31:00,70.7,67.9,30.06,SSW,194,3.0,6.0,91,0.00,CLR,,0.00,51.0,WeatherDisplay:10.37,2013-08-24 12:31:00,
2013-08-24 07:36:00,70.8,68.0,30.06,SE,127,2.1,6.9,91,0.00,CLR,,0.00,60.0,WeatherDisplay:10.37,2013-08-24 12:36:00,
2013-08-24 07:41:00,71.1,68.0,30.06,South,188,1.6,6.0,90,0.00,CLR,,0.00,83.0,WeatherDisplay:10.37,2013-08-24 12:41:00,
2013-08-24 07:46:00,71.3,68.2,30.06,South,172,6.0,12.7,90,0.00,CLR,,0.00,83.0,WeatherDisplay:10.37,2013-08-24 12:46:00,
2013-08-24 07:51:00,71.6,68.5,30.06,SSE,163,2.9,5.0,90,0.00,CLR,,0.00,90.0,WeatherDisplay:10.37,2013-08-24 12:51:00,
2013-08-24 07:56:00,71.8,68.4,30.05,South,188,3.8,6.9,89,0.00,CLR,,0.00,102.0,WeatherDisplay:10.37,2013-08-24 12:56:00,
2013-08-24 08:01:00,72.1,68.7,30.06,SSW,213,5.8,11.5,89,0.00,SCT,,0.00,142.0,WeatherDisplay:10.37,2013-08-24 13:01:00,
2013-08-24 08:06:00,72.3,68.5,30.06,SSW,193,3.5,6.9,88,0.00,SCT,,0.00,141.0,WeatherDisplay:10.37,2013-08-24 13:06:00,
2013-08-24 08:11:00,72.5,68.7,30.06,SE,135,5.0,9.0,88,0.00,SCT,,0.00,132.0,WeatherDisplay:10.37,2013-08-24 13:11:00,
2013-08-24 08:16:00,72.7,68.9,30.06,South,184,3.4,8.0,88,0.00,SCT,,0.00,100.0,WeatherDisplay:10.37,2013-08-24 13:16:00,
2013-08-24 08:21:00,72.8,68.7,30.06,SE,140,4.4,10.4,87,0.00,SCT,,0.00,109.0,WeatherDisplay:10.37,2013-08-24 13:21:00,
2013-08-24 08:26:00,72.9,68.8,30.06,ESE,117,4.6,12.0,87,0.00,SCT,,0.00,100.0,WeatherDisplay:10.37,2013-08-24 13:26:00,
2013-08-24 08:31:00,73.1,69.0,30.06,South,180,3.8,6.0,87,0.00,SCT,,0.00,109.0,WeatherDisplay:10.37,2013-08-24 13:31:00,
2013-08-24 08:36:00,73.3,69.2,30.06,SSE,150,3.6,7.0,87,0.00,SCT,,0.00,120.0,WeatherDisplay:10.37,2013-08-24 13:36:00,
2013-08-24 08:41:00,73.2,68.8,30.05,SSW,206,4.9,9.2,86,0.00,SCT,,0.00,132.0,WeatherDisplay:10.37,2013-08-24 13:41:00,
2013-08-24 08:46:00,73.3,68.9,30.06,South,172,3.9,6.0,86,0.00,SCT,,0.00,134.0,WeatherDisplay:10.37,2013-08-24 13:46:00,
2013-08-24 08:51:00,73.4,69.0,30.05,SSE,152,8.2,12.0,86,0.00,SCT,,0.00,167.0,WeatherDisplay:10.37,2013-08-24 13:51:00,
2013-08-24 08:56:00,73.5,69.1,30.05,SSE,162,4.6,8.1,86,0.00,SCT,,0.00,188.0,WeatherDisplay:10.37,2013-08-24 13:56:00,
2013-08-24 09:01:00,73.7,69.2,30.05,SSE,150,3.5,10.0,86,0.00,BKN,,0.00,104.0,WeatherDisplay:10.37,2013-08-24 14:01:00,
2013-08-24 09:06:00,73.7,69.2,30.04,SSW,205,2.0,5.0,86,0.00,BKN,,0.00,257.0,WeatherDisplay:10.37,2013-08-24 14:06:00,
2013-08-24 09:11:00,74.2,69.4,30.04,South,191,5.8,10.0,85,0.00,BKN,,0.00,362.0,WeatherDisplay:10.37,2013-08-24 14:11:00,
2013-08-24 09:16:00,74.7,69.9,30.04,South,174,3.4,6.9,85,0.00,BKN,,0.00,376.0,WeatherDisplay:10.37,2013-08-24 14:16:00,
2013-08-24 09:21:00,75.5,70.0,30.03,SE,135,3.7,10.4,83,0.00,BKN,,0.00,403.0,WeatherDisplay:10.37,2013-08-24 14:21:00,
2013-08-24 09:26:00,75.9,70.0,30.03,SSE,162,6.5,16.1,82,0.00,BKN,,0.00,438.0,WeatherDisplay:10.37,2013-08-24 14:26:00,
2013-08-24 09:31:00,76.3,70.4,30.03,South,189,5.3,11.0,82,0.00,BKN,,0.00,496.0,WeatherDisplay:10.37,2013-08-24 14:31:00,
2013-08-24 09:36:00,77.0,70.4,30.03,SE,128,4.9,17.3,80,0.00,BKN,,0.00,566.0,WeatherDisplay:10.37,2013-08-24 14:36:00,
2013-08-24 09:41:00,77.6,70.6,30.03,SSE,156,7.1,17.0,79,0.00,BKN,,0.00,633.0,WeatherDisplay:10.37,2013-08-24 14:41:00,
2013-08-24 09:46:00,78.0,71.0,30.03,SSW,205,5.5,9.2,79,0.00,BKN,,0.00,522.0,WeatherDisplay:10.37,2013-08-24 14:46:00,
2013-08-24 09:51:00,78.1,70.7,30.03,SSE,168,5.3,9.2,78,0.00,BKN,,0.00,313.0,WeatherDisplay:10.37,2013-08-24 14:51:00,
2013-08-24 09:56:00,78.4,71.0,30.03,SSE,158,5.9,11.5,78,0.00,BKN,,0.00,487.0,WeatherDisplay:10.37,2013-08-24 14:56:00,
2013-08-24 10:01:00,78.0,70.6,30.03,South,191,6.1,10.4,78,0.00,BKN,,0.00,227.0,WeatherDisplay:10.37,2013-08-24 15:01:00,
2013-08-24 10:06:00,77.9,70.9,30.04,SSW,195,2.2,8.1,79,0.00,CLR,,0.00,207.0,WeatherDisplay:10.37,2013-08-24 15:06:00,
2013-08-24 10:11:00,77.7,70.7,30.03,SE,144,3.3,5.0,79,0.00,CLR,,0.00,197.0,WeatherDisplay:10.37,2013-08-24 15:11:00,
2013-08-24 10:16:00,77.7,70.7,30.03,NE,42,3.2,10.0,79,0.00,CLR,,0.00,200.0,WeatherDisplay:10.37,2013-08-24 15:16:00,
2013-08-24 10:21:00,77.8,70.8,30.03,South,169,4.6,7.0,79,0.00,CLR,,0.00,225.0,WeatherDisplay:10.37,2013-08-24 15:21:00,
2013-08-24 10:26:00,78.0,71.0,30.03,ESE,119,4.2,8.0,79,0.00,CLR,,0.00,334.0,WeatherDisplay:10.37,2013-08-24 15:26:00,
2013-08-24 10:31:00,78.4,71.0,30.03,SSW,192,4.7,9.2,78,0.00,CLR,,0.00,394.0,WeatherDisplay:10.37,2013-08-24 15:31:00,
2013-08-24 10:36:00,78.7,70.9,30.02,SW,234,5.8,11.5,77,0.00,CLR,,0.00,357.0,WeatherDisplay:10.37,2013-08-24 15:36:00,
2013-08-24 10:41:00,79.3,71.1,30.02,SSW,199,4.0,9.2,76,0.00,CLR,,0.00,557.0,WeatherDisplay:10.37,2013-08-24 15:41:00,
2013-08-24 10:46:00,80.0,71.4,30.02,NE,46,4.5,10.4,75,0.00,CLR,,0.00,613.0,WeatherDisplay:10.37,2013-08-24 15:46:00,
2013-08-24 10:51:00,80.9,71.8,30.02,SSE,163,4.1,9.2,74,0.00,CLR,,0.00,608.0,WeatherDisplay:10.37,2013-08-24 15:51:00,
2013-08-24 10:56:00,81.3,71.4,30.02,SE,132,6.0,11.5,72,0.00,CLR,,0.00,563.0,WeatherDisplay:10.37,2013-08-24 15:56:00,
2013-08-24 11:01:00,81.7,71.8,30.02,SE,145,4.3,13.0,72,0.00,FEW,,0.00,629.0,WeatherDisplay:10.37,2013-08-24 16:01:00,
2013-08-24 11:06:00,81.7,71.8,30.01,East,96,8.3,15.0,72,0.00,FEW,,0.00,629.0,WeatherDisplay:10.37,2013-08-24 16:06:00,
2013-08-24 11:11:00,82.0,72.1,30.02,SSE,153,4.5,9.2,72,0.00,FEW,,0.00,640.0,WeatherDisplay:10.37,2013-08-24 16:11:00,
2013-08-24 11:16:00,82.4,71.6,30.01,SSW,200,7.5,11.5,70,0.00,FEW,,0.00,647.0,WeatherDisplay:10.37,2013-08-24 16:16:00,
2013-08-24 11:21:00,82.5,71.7,30.01,SSE,147,5.2,9.2,70,0.00,FEW,,0.00,650.0,WeatherDisplay:10.37,2013-08-24 16:21:00,
2013-08-24 11:26:00,82.4,71.6,30.01,South,184,3.0,13.8,70,0.00,FEW,,0.00,657.0,WeatherDisplay:10.37,2013-08-24 16:26:00,
2013-08-24 11:31:00,82.8,71.6,30.01,South,176,6.9,18.4,69,0.00,FEW,,0.00,664.0,WeatherDisplay:10.37,2013-08-24 16:31:00,
2013-08-24 11:36:00,82.9,71.7,30.01,SSE,165,5.5,12.0,69,0.00,FEW,,0.00,679.0,WeatherDisplay:10.37,2013-08-24 16:36:00,
2013-08-24 11:41:00,83.3,72.5,30.01,SE,136,1.3,3.0,70,0.00,FEW,,0.00,691.0,WeatherDisplay:10.37,2013-08-24 16:41:00,
2013-08-24 11:46:00,83.8,72.5,30.01,SW,232,4.4,8.1,69,0.00,FEW,,0.00,722.0,WeatherDisplay:10.37,2013-08-24 16:46:00,
2013-08-24 11:51:00,84.4,72.7,30.01,SE,137,3.3,8.1,68,0.00,FEW,,0.00,705.0,WeatherDisplay:10.37,2013-08-24 16:51:00,
2013-08-24 11:56:00,84.0,71.9,30.01,SE,141,6.6,11.5,67,0.00,FEW,,0.00,724.0,WeatherDisplay:10.37,2013-08-24 16:56:00,
2013-08-24 12:01:00,84.1,72.4,30.00,South,188,5.2,9.0,68,0.00,FEW,,0.00,703.0,WeatherDisplay:10.37,2013-08-24 17:01:00,
2013-08-24 12:06:00,84.2,72.5,30.01,SSW,192,5.3,10.4,68,0.00,CLR,,0.00,705.0,WeatherDisplay:10.37,2013-08-24 17:06:00,
2013-08-24 12:11:00,84.5,72.8,30.01,South,169,5.5,11.5,68,0.00,CLR,,0.00,719.0,WeatherDisplay:10.37,2013-08-24 17:11:00,
2013-08-24 12:16:00,84.6,72.4,30.00,South,174,5.0,9.2,67,0.00,CLR,,0.00,724.0,WeatherDisplay:10.37,2013-08-24 17:16:00,
2013-08-24 12:21:00,85.0,72.8,30.00,SSW,202,5.9,10.4,67,0.00,CLR,,0.00,724.0,WeatherDisplay:10.37,2013-08-24 17:21:00,
2013-08-24 12:26:00,85.6,72.9,30.00,South,187,4.5,9.2,66,0.00,CLR,,0.00,726.0,WeatherDisplay:10.37,2013-08-24 17:26:00,
2013-08-24 12:31:00,86.0,72.9,30.00,WSW,240,2.3,6.0,65,0.00,CLR,,0.00,715.0,WeatherDisplay:10.37,2013-08-24 17:31:00,
2013-08-24 12:36:00,86.1,73.0,30.00,WNW,286,6.1,12.0,65,0.00,CLR,,0.00,749.0,WeatherDisplay:10.37,2013-08-24 17:36:00,
2013-08-24 12:41:00,86.0,73.3,30.00,ESE,111,4.2,7.0,66,0.00,CLR,,0.00,719.0,WeatherDisplay:10.37,2013-08-24 17:41:00,
2013-08-24 12:46:00,86.0,72.9,30.00,East,96,8.6,13.0,65,0.00,CLR,,0.00,657.0,WeatherDisplay:10.37,2013-08-24 17:46:00,
2013-08-24 12:51:00,86.2,73.0,29.99,SSE,160,7.4,15.0,65,0.00,CLR,,0.00,733.0,WeatherDisplay:10.37,2013-08-24 17:51:00,
2013-08-24 12:56:00,86.3,73.1,29.99,SE,138,6.5,10.4,65,0.00,CLR,,0.00,758.0,WeatherDisplay:10.37,2013-08-24 17:56:00,
2013-08-24 13:01:00,86.1,73.0,29.99,SE,128,6.1,15.0,65,0.00,CLR,,0.00,768.0,WeatherDisplay:10.37,2013-08-24 18:01:00,
2013-08-24 13:06:00,86.4,73.2,29.99,SSE,153,4.2,10.4,65,0.00,FEW,,0.00,773.0,WeatherDisplay:10.37,2013-08-24 18:06:00,
2013-08-24 13:11:00,87.1,73.4,29.99,SE,139,5.4,12.0,64,0.00,FEW,,0.00,759.0,WeatherDisplay:10.37,2013-08-24 18:11:00,
2013-08-24 13:16:00,87.2,73.5,29.99,South,175,3.0,9.2,64,0.00,FEW,,0.00,670.0,WeatherDisplay:10.37,2013-08-24 18:16:00,
2013-08-24 13:21:00,87.5,73.3,29.99,South,178,8.0,16.1,63,0.00,FEW,,0.00,777.0,WeatherDisplay:10.37,2013-08-24 18:21:00,
2013-08-24 13:26:00,87.3,73.6,29.99,ESE,122,5.6,11.5,64,0.00,FEW,,0.00,770.0,WeatherDisplay:10.37,2013-08-24 18:26:00,
2013-08-24 13:31:00,88.3,73.6,29.99,SSE,168,3.8,9.2,62,0.00,FEW,,0.00,772.0,WeatherDisplay:10.37,2013-08-24 18:31:00,
2013-08-24 13:36:00,88.6,72.9,29.99,South,183,5.3,12.0,60,0.00,FEW,,0.00,747.0,WeatherDisplay:10.37,2013-08-24 18:36:00,
2013-08-24 13:41:00,88.4,73.2,29.99,South,171,3.7,9.2,61,0.00,FEW,,0.00,728.0,WeatherDisplay:10.37,2013-08-24 18:41:00,
2013-08-24 13:46:00,88.4,73.2,29.99,SSE,149,4.2,10.0,61,0.00,FEW,,0.00,752.0,WeatherDisplay:10.37,2013-08-24 18:46:00,
2013-08-24 13:51:00,89.5,73.8,29.99,South,184,1.9,5.0,60,0.00,FEW,,0.00,724.0,WeatherDisplay:10.37,2013-08-24 18:51:00,
2013-08-24 13:56:00,89.6,72.3,29.99,SSW,194,6.9,11.0,57,0.00,FEW,,0.00,715.0,WeatherDisplay:10.37,2013-08-24 18:56:00,
2013-08-24 14:01:00,89.6,72.9,29.99,ESE,121,2.6,7.0,58,0.00,FEW,,0.00,705.0,WeatherDisplay:10.37,2013-08-24 19:01:00,
2013-08-24 14:06:00,89.7,71.9,29.98,South,178,4.9,12.0,56,0.00,FEW,,0.00,744.0,WeatherDisplay:10.37,2013-08-24 19:06:00,
2013-08-24 14:11:00,89.7,72.4,29.98,South,173,1.7,3.5,57,0.00,FEW,,0.00,717.0,WeatherDisplay:10.37,2013-08-24 19:11:00,
2013-08-24 14:16:00,90.0,71.7,29.98,SW,219,5.1,10.4,55,0.00,FEW,,0.00,670.0,WeatherDisplay:10.37,2013-08-24 19:16:00,
2013-08-24 14:21:00,89.7,72.4,29.98,SSW,192,4.1,7.0,57,0.00,FEW,,0.00,686.0,WeatherDisplay:10.37,2013-08-24 19:21:00,
2013-08-24 14:26:00,89.9,72.1,29.98,SSW,192,9.6,16.1,56,0.00,FEW,,0.00,622.0,WeatherDisplay:10.37,2013-08-24 19:26:00,
2013-08-24 14:31:00,89.7,71.9,29.98,South,173,5.7,8.1,56,0.00,FEW,,0.00,599.0,WeatherDisplay:10.37,2013-08-24 19:31:00,
2013-08-24 14:36:00,89.9,72.6,29.97,South,182,6.1,13.0,57,0.00,FEW,,0.00,647.0,WeatherDisplay:10.37,2013-08-24 19:36:00,
2013-08-24 14:41:00,90.3,72.5,29.97,ESE,111,4.4,8.1,56,0.00,FEW,,0.00,726.0,WeatherDisplay:10.37,2013-08-24 19:41:00,
2013-08-24 14:46:00,90.2,71.8,29.97,West,279,8.0,18.0,55,0.00,FEW,,0.00,635.0,WeatherDisplay:10.37,2013-08-24 19:46:00,
2013-08-24 14:51:00,90.1,71.8,29.97,SSE,160,8.1,16.1,55,0.00,FEW,,0.00,708.0,WeatherDisplay:10.37,2013-08-24 19:51:00,
2013-08-24 14:56:00,89.9,72.6,29.97,SSE,165,4.0,6.0,57,0.00,FEW,,0.00,675.0,WeatherDisplay:10.37,2013-08-24 19:56:00,
2013-08-24 15:01:00,90.1,72.3,29.97,ESE,113,4.7,12.7,56,0.00,FEW,,0.00,691.0,WeatherDisplay:10.37,2013-08-24 20:01:00,
2013-08-24 15:06:00,90.4,72.6,29.97,South,171,5.6,11.0,56,0.00,CLR,,0.00,680.0,WeatherDisplay:10.37,2013-08-24 20:06:00,
2013-08-24 15:11:00,90.4,72.6,29.97,ESE,117,5.6,10.4,56,0.00,CLR,,0.00,677.0,WeatherDisplay:10.37,2013-08-24 20:11:00,
2013-08-24 15:16:00,91.2,72.8,29.96,ESE,110,5.6,13.0,55,0.00,CLR,,0.00,691.0,WeatherDisplay:10.37,2013-08-24 20:16:00,
2013-08-24 15:21:00,90.8,72.4,29.96,SSE,153,5.9,12.7,55,0.00,CLR,,0.00,698.0,WeatherDisplay:10.37,2013-08-24 20:21:00,
2013-08-24 15:26:00,90.8,72.4,29.96,SE,144,5.1,11.0,55,0.00,CLR,,0.00,693.0,WeatherDisplay:10.37,2013-08-24 20:26:00,
2013-08-24 15:31:00,90.9,72.0,29.95,East,99,7.7,13.8,54,0.00,CLR,,0.00,561.0,WeatherDisplay:10.37,2013-08-24 20:31:00,
2013-08-24 15:36:00,90.8,72.4,29.95,East,95,5.4,11.5,55,0.00,CLR,,0.00,489.0,WeatherDisplay:10.37,2013-08-24 20:36:00,
2013-08-24 15:41:00,90.6,73.3,29.95,SE,144,5.8,10.4,57,0.00,CLR,,0.00,624.0,WeatherDisplay:10.37,2013-08-24 20:41:00,
2013-08-24 15:46:00,90.4,72.6,29.95,SW,217,6.6,15.0,56,0.00,CLR,,0.00,622.0,WeatherDisplay:10.37,2013-08-24 20:46:00,
2013-08-24 15:51:00,90.1,72.3,29.95,SE,126,8.7,15.0,56,0.00,CLR,,0.00,608.0,WeatherDisplay:10.37,2013-08-24 20:51:00,
2013-08-24 15:56:00,90.1,72.3,29.95,SSE,148,11.3,17.3,56,0.00,CLR,,0.00,647.0,WeatherDisplay:10.37,2013-08-24 20:56:00,
2013-08-24 16:01:00,89.8,72.5,29.95,East,101,5.0,13.8,57,0.00,CLR,,0.00,624.0,WeatherDisplay:10.37,2013-08-24 21:01:00,
2013-08-24 16:06:00,90.2,72.9,29.94,SE,142,4.3,9.2,57,0.00,CLR,,0.00,230.0,WeatherDisplay:10.37,2013-08-24 21:06:00,
2013-08-24 16:11:00,90.4,73.1,29.94,SE,134,6.1,12.7,57,0.00,CLR,,0.00,629.0,WeatherDisplay:10.37,2013-08-24 21:11:00,
2013-08-24 16:16:00,90.2,72.4,29.94,South,187,6.0,13.0,56,0.00,CLR,,0.00,555.0,WeatherDisplay:10.37,2013-08-24 21:16:00,
2013-08-24 16:21:00,89.6,72.3,29.94,SSE,149,6.1,15.0,57,0.00,CLR,,0.00,533.0,WeatherDisplay:10.37,2013-08-24 21:21:00,
2013-08-24 16:26:00,89.8,72.5,29.94,SSE,148,7.8,12.0,57,0.00,CLR,,0.00,522.0,WeatherDisplay:10.37,2013-08-24 21:26:00,
2013-08-24 16:31:00,89.6,72.3,29.94,ENE,64,5.6,14.0,57,0.00,CLR,,0.00,504.0,WeatherDisplay:10.37,2013-08-24 21:31:00,
2013-08-24 16:36:00,89.4,72.7,29.94,ENE,72,8.4,15.0,58,0.00,CLR,,0.00,494.0,WeatherDisplay:10.37,2013-08-24 21:36:00,
2013-08-24 16:41:00,89.4,72.7,29.94,SSE,156,5.5,12.0,58,0.00,CLR,,0.00,485.0,WeatherDisplay:10.37,2013-08-24 21:41:00,
2013-08-24 16:46:00,89.7,73.0,29.93,SSE,165,6.3,15.0,58,0.00,CLR,,0.00,471.0,WeatherDisplay:10.37,2013-08-24 21:46:00,
2013-08-24 16:51:00,89.6,72.3,29.93,South,173,6.9,13.0,57,0.00,CLR,,0.00,454.0,WeatherDisplay:10.37,2013-08-24 21:51:00,
2013-08-24 16:56:00,89.2,72.5,29.93,South,183,6.7,16.0,58,0.00,CLR,,0.00,438.0,WeatherDisplay:10.37,2013-08-24 21:56:00,
2013-08-24 17:01:00,88.9,72.7,29.93,SSE,159,6.5,12.0,59,0.00,CLR,,0.00,424.0,WeatherDisplay:10.37,2013-08-24 22:01:00,
2013-08-24 17:06:00,88.9,72.7,29.93,South,188,6.0,12.0,59,0.00,CLR,,0.00,413.0,WeatherDisplay:10.37,2013-08-24 22:06:00,
2013-08-24 17:11:00,88.5,72.3,29.93,SE,141,8.9,16.1,59,0.00,CLR,,0.00,401.0,WeatherDisplay:10.37,2013-08-24 22:11:00,
2013-08-24 17:16:00,88.0,72.4,29.93,SE,138,7.7,17.3,60,0.00,CLR,,0.00,388.0,WeatherDisplay:10.37,2013-08-24 22:16:00,
2013-08-24 17:21:00,88.0,72.9,29.93,SSE,161,6.1,12.0,61,0.00,CLR,,0.00,373.0,WeatherDisplay:10.37,2013-08-24 22:21:00,
2013-08-24 17:26:00,87.9,72.8,29.93,SSE,168,5.8,10.4,61,0.00,CLR,,0.00,359.0,WeatherDisplay:10.37,2013-08-24 22:26:00,
2013-08-24 17:31:00,87.5,72.4,29.93,South,180,3.5,17.3,61,0.00,CLR,,0.00,345.0,WeatherDisplay:10.37,2013-08-24 22:31:00,
2013-08-24 17:36:00,87.4,72.8,29.93,SSW,211,7.2,13.0,62,0.00,CLR,,0.00,329.0,WeatherDisplay:10.37,2013-08-24 22:36:00,
2013-08-24 17:41:00,87.3,72.7,29.93,South,171,5.2,9.2,62,0.00,CLR,,0.00,313.0,WeatherDisplay:10.37,2013-08-24 22:41:00,
2013-08-24 17:46:00,87.0,72.4,29.93,SSW,206,3.2,10.4,62,0.00,CLR,,0.00,304.0,WeatherDisplay:10.37,2013-08-24 22:46:00,
2013-08-24 17:51:00,86.8,72.7,29.93,SSE,167,3.7,6.0,63,0.00,CLR,,0.00,292.0,WeatherDisplay:10.37,2013-08-24 22:51:00,
2013-08-24 17:56:00,86.8,72.7,29.93,SSW,206,5.4,12.0,63,0.00,CLR,,0.00,279.0,WeatherDisplay:10.37,2013-08-24 22:56:00,
2013-08-24 18:01:00,86.4,72.3,29.93,SSE,158,5.9,21.9,63,0.00,CLR,,0.00,265.0,WeatherDisplay:10.37,2013-08-24 23:01:00,
2013-08-24 18:06:00,85.9,72.3,29.93,SSE,161,6.4,12.7,64,0.00,CLR,,0.00,248.0,WeatherDisplay:10.37,2013-08-24 23:06:00,
2013-08-24 18:11:00,85.6,72.5,29.93,SE,127,6.6,16.1,65,0.00,CLR,,0.00,236.0,WeatherDisplay:10.37,2013-08-24 23:11:00,
2013-08-24 18:16:00,85.5,72.8,29.93,SE,141,3.9,9.2,66,0.00,CLR,,0.00,227.0,WeatherDisplay:10.37,2013-08-24 23:16:00,
2013-08-24 18:21:00,85.6,72.9,29.93,SSE,167,4.5,8.1,66,0.00,CLR,,0.00,209.0,WeatherDisplay:10.37,2013-08-24 23:21:00,
2013-08-24 18:26:00,85.2,73.0,29.93,South,183,6.8,16.1,67,0.00,CLR,,0.00,202.0,WeatherDisplay:10.37,2013-08-24 23:26:00,
2013-08-24 18:31:00,85.0,73.3,29.93,WSW,257,2.9,7.0,68,0.00,CLR,,0.00,207.0,WeatherDisplay:10.37,2013-08-24 23:31:00,
2013-08-24 18:36:00,85.0,73.3,29.93,SSE,167,3.9,12.0,68,0.00,CLR,,0.00,200.0,WeatherDisplay:10.37,2013-08-24 23:36:00,
2013-08-24 18:41:00,84.9,73.6,29.93,South,187,5.7,13.0,69,0.00,CLR,,0.00,178.0,WeatherDisplay:10.37,2013-08-24 23:41:00,
2013-08-24 18:46:00,84.8,73.5,29.93,West,261,5.2,13.0,69,0.00,CLR,,0.00,139.0,WeatherDisplay:10.37,2013-08-24 23:46:00,
2013-08-24 18:51:00,84.5,73.2,29.93,East,84,8.3,15.0,69,0.00,CLR,,0.00,123.0,WeatherDisplay:10.37,2013-08-24 23:51:00,
2013-08-24 18:56:00,84.4,73.5,29.93,SSW,193,3.6,7.0,70,0.00,CLR,,0.00,111.0,WeatherDisplay:10.37,2013-08-24 23:56:00,
2013-08-24 19:01:00,84.2,72.9,29.93,South,173,6.3,15.0,69,0.00,CLR,,0.00,93.0,WeatherDisplay:10.37,2013-08-25 00:01:00,
2013-08-24 19:06:00,84.0,73.2,29.93,West,279,3.4,7.0,70,0.00,CLR,,0.00,84.0,WeatherDisplay:10.37,2013-08-25 00:06:00,
2013-08-24 19:11:00,83.7,72.9,29.93,South,176,3.2,8.0,70,0.00,CLR,,0.00,74.0,WeatherDisplay:10.37,2013-08-25 00:11:00,
2013-08-24 19:16:00,83.6,73.2,29.93,SE,138,4.7,11.5,71,0.00,CLR,,0.00,62.0,WeatherDisplay:10.37,2013-08-25 00:16:00,
2013-08-24 19:21:00,83.4,73.0,29.93,SSW,193,4.3,8.1,71,0.00,CLR,,0.00,51.0,WeatherDisplay:10.37,2013-08-25 00:21:00,
2013-08-24 19:26:00,83.1,73.1,29.93,ENE,69,4.7,9.2,72,0.00,CLR,,0.00,44.0,WeatherDisplay:10.37,2013-08-25 00:26:00,
2013-08-24 19:31:00,82.9,72.9,29.93,SSW,200,3.9,10.4,72,0.00,CLR,,0.00,39.0,WeatherDisplay:10.37,2013-08-25 00:31:00,
2013-08-24 19:36:00,82.7,73.2,29.94,SE,146,4.4,10.4,73,0.00,CLR,,0.00,30.0,WeatherDisplay:10.37,2013-08-25 00:36:00,
2013-08-24 19:41:00,82.5,73.0,29.93,SSE,161,2.4,6.0,73,0.00,CLR,,0.00,25.0,WeatherDisplay:10.37,2013-08-25 00:41:00,
2013-08-24 19:46:00,82.3,72.8,29.93,SSE,147,2.4,6.9,73,0.00,CLR,,0.00,19.0,WeatherDisplay:10.37,2013-08-25 00:46:00,
2013-08-24 19:51:00,82.1,73.0,29.93,SE,135,4.3,10.4,74,0.00,CLR,,0.00,16.0,WeatherDisplay:10.37,2013-08-25 00:51:00,
2013-08-24 19:56:00,81.9,73.2,29.93,SSE,154,6.6,16.1,75,0.00,CLR,,0.00,12.0,WeatherDisplay:10.37,2013-08-25 00:56:00,
2013-08-24 20:01:00,81.7,73.4,29.93,South,177,5.2,8.1,76,0.00,CLR,,0.00,9.0,WeatherDisplay:10.37,2013-08-25 01:01:00,
2013-08-24 20:06:00,81.5,73.2,29.93,SSE,165,4.0,10.4,76,0.00,CLR,,0.00,5.0,WeatherDisplay:10.37,2013-08-25 01:06:00,
2013-08-24 20:11:00,81.4,73.5,29.93,SE,146,3.1,7.0,77,0.00,CLR,,0.00,0.0,WeatherDisplay:10.37,2013-08-25 01:11:00,
2013-08-24 20:16:00,81.3,73.4,29.93,South,186,5.7,9.2,77,0.00,CLR,,0.00,0.0,WeatherDisplay:10.37,2013-08-25 01:16:00,
2013-08-24 20:21:00,81.2,73.3,29.94,SSE,165,3.0,5.0,77,0.00,CLR,,0.00,0.0,WeatherDisplay:10.37,2013-08-25 01:21:00,
2013-08-24 20:26:00,81.0,73.5,29.94,SSW,209,2.1,9.0,78,0.00,CLR,,0.00,0.0,WeatherDisplay:10.37,2013-08-25 01:26:00,
2013-08-24 20:31:00,81.0,73.5,29.94,South,188,1.6,7.0,78,0.00,CLR,,0.00,0.0,WeatherDisplay:10.37,2013-08-25 01:31:00,
2013-08-24 20:36:00,80.9,73.4,29.94,South,188,3.8,13.0,78,0.00,CLR,,0.00,0.0,WeatherDisplay:10.37,2013-08-25 01:36:00,
2013-08-24 20:41:00,80.7,73.6,29.94,SSW,209,3.7,9.2,79,0.00,CLR,,0.00,0.0,WeatherDisplay:10.37,2013-08-25 01:41:00,
2013-08-24 20:46:00,80.7,73.6,29.94,SSW,194,2.9,8.1,79,0.00,CLR,,0.00,0.0,WeatherDisplay:10.37,2013-08-25 01:46:00,
2013-08-24 20:51:00,80.6,73.5,29.94,SW,223,1.5,4.0,79,0.00,CLR,,0.00,0.0,WeatherDisplay:10.37,2013-08-25 01:51:00,
2013-08-24 20:56:00,80.5,73.4,29.94,South,178,3.3,7.0,79,0.00,CLR,,0.00,0.0,WeatherDisplay:10.37,2013-08-25 01:56:00,
2013-08-24 21:01:00,80.4,73.3,29.94,South,169,1.7,5.0,79,0.00,CLR,,0.00,0.0,WeatherDisplay:10.37,2013-08-25 02:01:00,
2013-08-24 21:06:00,80.3,73.6,29.94,South,187,1.9,4.0,80,0.00,CLR,,0.00,0.0,WeatherDisplay:10.37,2013-08-25 02:06:00,
2013-08-24 21:11:00,80.2,73.5,29.93,South,178,4.8,8.1,80,0.00,CLR,,0.00,0.0,WeatherDisplay:10.37,2013-08-25 02:11:00,
2013-08-24 21:16:00,80.2,73.5,29.94,South,173,4.5,7.0,80,0.00,CLR,,0.00,0.0,WeatherDisplay:10.37,2013-08-25 02:16:00,
2013-08-24 21:21:00,80.2,73.5,29.94,SE,146,1.9,8.0,80,0.00,CLR,,0.00,0.0,WeatherDisplay:10.37,2013-08-25 02:21:00,
2013-08-24 21:26:00,80.2,73.8,29.94,ESE,110,3.8,8.0,81,0.00,CLR,,0.00,0.0,WeatherDisplay:10.37,2013-08-25 02:26:00,
2013-08-24 21:31:00,80.1,73.7,29.93,South,173,2.2,5.0,81,0.00,CLR,,0.00,0.0,WeatherDisplay:10.37,2013-08-25 02:31:00,
2013-08-24 21:36:00,79.9,73.5,29.93,SW,219,2.6,10.0,81,0.00,CLR,,0.00,0.0,WeatherDisplay:10.37,2013-08-25 02:36:00,
2013-08-24 21:41:00,80.0,73.6,29.94,SSW,199,2.2,4.0,81,0.00,CLR,,0.00,0.0,WeatherDisplay:10.37,2013-08-25 02:41:00,
2013-08-24 21:46:00,80.0,73.6,29.94,ESE,107,3.8,8.0,81,0.00,CLR,,0.00,0.0,WeatherDisplay:10.37,2013-08-25 02:46:00,
2013-08-24 21:51:00,80.1,73.7,29.94,SSE,165,4.9,14.0,81,0.00,CLR,,0.00,0.0,WeatherDisplay:10.37,2013-08-25 02:51:00,
2013-08-24 21:56:00,80.0,73.6,29.94,South,178,3.8,7.0,81,0.00,CLR,,0.00,0.0,WeatherDisplay:10.37,2013-08-25 02:56:00,
2013-08-24 22:01:00,80.0,74.0,29.94,SSE,147,4.1,7.0,82,0.00,CLR,,0.00,0.0,WeatherDisplay:10.37,2013-08-25 03:01:00,
2013-08-24 22:06:00,80.0,74.0,29.94,SE,141,4.5,10.0,82,0.00,CLR,,0.00,0.0,WeatherDisplay:10.37,2013-08-25 03:06:00,
2013-08-24 22:11:00,80.1,73.7,29.94,SSE,155,5.1,7.0,81,0.00,CLR,,0.00,0.0,WeatherDisplay:10.37,2013-08-25 03:11:00,
2013-08-24 22:16:00,80.1,73.7,29.94,SE,130,3.2,11.5,81,0.00,CLR,,0.00,0.0,WeatherDisplay:10.37,2013-08-25 03:16:00,
2013-08-24 22:21:00,80.1,73.7,29.94,SSE,158,5.6,11.5,81,0.00,CLR,,0.00,0.0,WeatherDisplay:10.37,2013-08-25 03:21:00,
2013-08-24 22:26:00,80.2,73.8,29.94,South,189,6.6,13.0,81,0.00,CLR,,0.00,0.0,WeatherDisplay:10.37,2013-08-25 03:26:00,
2013-08-24 22:31:00,80.3,73.9,29.95,SSE,166,3.0,7.0,81,0.00,CLR,,0.00,0.0,WeatherDisplay:10.37,2013-08-25 03:31:00,
2013-08-24 22:36:00,80.4,73.7,29.95,South,178,4.0,8.1,80,0.00,CLR,,0.00,0.0,WeatherDisplay:10.37,2013-08-25 03:36:00,
2013-08-24 22:41:00,80.4,73.7,29.95,ESE,110,7.1,12.0,80,0.00,CLR,,0.00,0.0,WeatherDisplay:10.37,2013-08-25 03:41:00,
2013-08-24 22:46:00,80.4,73.7,29.95,SSW,200,6.9,15.0,80,0.00,CLR,,0.00,0.0,WeatherDisplay:10.37,2013-08-25 03:46:00,
2013-08-24 22:51:00,80.5,73.8,29.95,SSW,194,6.0,10.4,80,0.00,CLR,,0.00,0.0,WeatherDisplay:10.37,2013-08-25 03:51:00,
2013-08-24 22:56:00,80.5,73.4,29.95,SSW,205,6.0,17.0,79,0.00,CLR,,0.00,0.0,WeatherDisplay:10.37,2013-08-25 03:56:00,
2013-08-24 23:01:00,80.5,73.4,29.95,SSE,165,5.7,12.0,79,0.00,CLR,,0.00,0.0,WeatherDisplay:10.37,2013-08-25 04:01:00,
2013-08-24 23:02:00,80.5,73.4,29.95,South,181,7.1,11.5,79,0.00,CLR,,0.00,0.0,WeatherDisplay:10.37,2013-08-25 04:02:00,
2013-08-24 23:05:00,80.5,73.4,29.95,South,189,6.0,17.0,79,0.00,CLR,CLR,0.00,0.0,WeatherDisplay:10.37,2013-08-25 04:05:00,
2013-08-24 23:07:00,80.6,73.5,29.95,South,188,6.8,12.0,79,0.00,CLR,,0.00,0.0,WeatherDisplay:10.37,2013-08-25 04:07:00,
2013-08-24 23:12:00,80.6,73.5,29.95,SW,232,4.9,8.1,79,0.00,CLR,,0.00,0.0,WeatherDisplay:10.37,2013-08-25 04:12:00,
2013-08-24 23:13:00,80.6,73.5,29.96,South,186,5.8,14.0,79,0.00,CLR,,0.00,0.0,WeatherDisplay:10.37,2013-08-25 04:13:00,
2013-08-24 23:18:00,80.5,73.4,29.96,SW,227,8.4,16.0,79,0.00,CLR,,0.00,0.0,WeatherDisplay:10.37,2013-08-25 04:18:00,
2013-08-24 23:23:00,80.5,73.4,29.96,South,170,6.5,9.0,79,0.00,CLR,,0.00,0.0,WeatherDisplay:10.37,2013-08-25 04:23:00,
2013-08-24 23:28:00,80.4,73.3,29.96,SSE,161,9.9,24.0,79,0.00,CLR,,0.00,0.0,WeatherDisplay:10.37,2013-08-25 04:28:00,
2013-08-24 23:33:00,80.4,73.3,29.96,South,176,6.4,11.5,79,0.00,CLR,,0.00,0.0,WeatherDisplay:10.37,2013-08-25 04:33:00,
2013-08-24 23:38:00,80.3,73.2,29.96,SSW,202,5.6,8.1,79,0.00,CLR,,0.00,0.0,WeatherDisplay:10.37,2013-08-25 04:38:00,
2013-08-24 23:43:00,80.2,73.1,29.96,SSW,210,7.1,16.1,79,0.00,CLR,,0.00,0.0,WeatherDisplay:10.37,2013-08-25 04:43:00,
2013-08-24 23:48:00,80.1,73.4,29.96,SSW,200,7.3,11.5,80,0.00,CLR,,0.00,0.0,WeatherDisplay:10.37,2013-08-25 04:48:00,
2013-08-24 23:53:00,80.0,73.3,29.95,South,175,9.6,13.0,80,0.00,CLR,,0.00,0.0,WeatherDisplay:10.37,2013-08-25 04:53:00,
2013-08-24 23:58:00,79.8,73.1,29.96,SSE,163,6.5,14.0,80,0.00,CLR,,0.00,0.0,WeatherDisplay:10.37,2013-08-25 04:58:00,